• In Uzbekistan
  • List of Countries
  • For 7 days
  • Water Temperature
  • Satellite Maps
  • Weather Map
  • Weather Widgets
  • user-avatar
    Login

    Hourly Weather Tibissa

    Today, 15 December, Saturday

    Time Temperature Precipitation Wind Pressure Humidity
    00:00 +5°C° 0.7 mm 12 mps 681 mmHg 84%
    01:00 +5°C° 0 mm 13 mps 681 mmHg 86%
    02:00 +5°C° 0.4 mm 13 mps 682 mmHg 84%
    03:00 +4°C° 0.4 mm 14 mps 682 mmHg 81%
    04:00 +4°C° 0.4 mm 14 mps 683 mmHg 79%
    05:00 +3°C° 0 mm 14 mps 683 mmHg 79%
    06:00 +3°C° 0 mm 13 mps 684 mmHg 79%
    07:00 +2°C° 0 mm 12 mps 684 mmHg 78%
    08:00 +3°C° 0 mm 12 mps 685 mmHg 75%
    09:00 +4°C° 0 mm 13 mps 685 mmHg 72%
    10:00 +4°C° 0 mm 13 mps 686 mmHg 69%
    11:00 +5°C° 0 mm 12 mps 686 mmHg 68%
    12:00 +6°C° 0 mm 11 mps 687 mmHg 67%
    13:00 +7°C° 0 mm 11 mps 687 mmHg 66%
    14:00 +7°C° 0 mm 10 mps 687 mmHg 68%
    15:00 +7°C° 0 mm 9 mps 687 mmHg 70%
    16:00 +7°C° 0 mm 8 mps 687 mmHg 72%
    17:00 +6°C° 0.1 mm 8 mps 687 mmHg 75%
    18:00 +6°C° 0.1 mm 7 mps 688 mmHg 78%
    19:00 +6°C° 0.1 mm 7 mps 688 mmHg 81%
    20:00 +5°C° 0 mm 6 mps 688 mmHg 81%
    21:00 +5°C° 0 mm 6 mps 688 mmHg 81%
    22:00 +6°C° 0 mm 5 mps 689 mmHg 82%
    23:00 +5°C° 0 mm 5 mps 689 mmHg 81%

    Tomorrow, 16 December, Sunday

    Time Temperature Precipitation Wind Pressure Humidity
    00:00 +5°C° 0 mm 4 mps 689 mmHg 81%
    01:00 +5°C° 0 mm 4 mps 688 mmHg 80%
    02:00 +5°C° 0 mm 3 mps 688 mmHg 79%
    03:00 +5°C° 0 mm 3 mps 688 mmHg 77%
    04:00 +5°C° 0 mm 2 mps 688 mmHg 75%
    05:00 +5°C° 0 mm 2 mps 688 mmHg 73%
    06:00 +5°C° 0 mm 2 mps 688 mmHg 71%
    07:00 +5°C° 0 mm 2 mps 688 mmHg 68%
    08:00 +7°C° 0 mm 2 mps 689 mmHg 61%
    09:00 +9°C° 0 mm 2 mps 690 mmHg 54%
    10:00 +10°C° 0 mm 2 mps 690 mmHg 47%
    11:00 +13°C° 0 mm 2 mps 690 mmHg 45%
    12:00 +14°C° 0 mm 2 mps 690 mmHg 42%
    13:00 +16°C° 0 mm 3 mps 690 mmHg 40%
    14:00 +16°C° 0 mm 3 mps 690 mmHg 41%
    15:00 +16°C° 0 mm 3 mps 690 mmHg 41%
    16:00 +16°C° 0 mm 3 mps 690 mmHg 42%
    17:00 +14°C° 0 mm 3 mps 690 mmHg 46%
    18:00 +13°C° 0 mm 2 mps 689 mmHg 51%
    19:00 +12°C° 0 mm 2 mps 689 mmHg 55%
    20:00 +12°C° 0 mm 2 mps 689 mmHg 56%
    21:00 +11°C° 0 mm 3 mps 690 mmHg 56%
    22:00 +10°C° 0 mm 3 mps 690 mmHg 57%
    23:00 +10°C° 0 mm 3 mps 689 mmHg 58%

    Day after tomorrow, 17 December, Monday

    Time Temperature Precipitation Wind Pressure Humidity
    00:00 +10°C° 0 mm 3 mps 689 mmHg 59%
    01:00 +10°C° 0 mm 3 mps 689 mmHg 60%
    02:00 +10°C° 0 mm 3 mps 689 mmHg 61%
    03:00 +9°C° 0 mm 3 mps 689 mmHg 62%
    04:00 +9°C° 0 mm 3 mps 688 mmHg 63%
    05:00 +9°C° 0 mm 3 mps 689 mmHg 63%
    06:00 +9°C° 0 mm 2 mps 689 mmHg 64%
    07:00 +8°C° 0 mm 2 mps 689 mmHg 64%
    08:00 +10°C° 0 mm 3 mps 689 mmHg 60%
    09:00 +11°C° 0 mm 3 mps 690 mmHg 56%
    10:00 +13°C° 0 mm 3 mps 691 mmHg 52%
    11:00 +14°C° 0 mm 4 mps 691 mmHg 50%
    12:00 +14°C° 0 mm 5 mps 691 mmHg 48%
    13:00 +15°C° 0 mm 6 mps 691 mmHg 46%
    14:00 +15°C° 0 mm 6 mps 691 mmHg 48%
    15:00 +14°C° 0 mm 7 mps 690 mmHg 50%
    16:00 +14°C° 0 mm 7 mps 690 mmHg 52%
    17:00 +11°C° 0 mm 7 mps 691 mmHg 60%
    18:00 +10°C° 0 mm 6 mps 691 mmHg 68%
    19:00 +8°C° 0 mm 5 mps 691 mmHg 76%
    20:00 +8°C° 0 mm 5 mps 691 mmHg 79%
    21:00 +7°C° 0 mm 4 mps 691 mmHg 83%
    22:00 +6°C° 0 mm 4 mps 692 mmHg 86%
    23:00 +6°C° 0 mm 4 mps 691 mmHg 87%

    18 December, Tuesday

    Time Temperature Precipitation Wind Pressure Humidity
    00:00 +6°C° 0 mm 4 mps 691 mmHg 88%
    01:00 +5°C° 0 mm 4 mps 691 mmHg 88%
    02:00 +5°C° 0 mm 3 mps 691 mmHg 88%
    03:00 +4°C° 0 mm 3 mps 691 mmHg 88%
    04:00 +4°C° 0 mm 3 mps 691 mmHg 87%
    05:00 +5°C° 0 mm 2 mps 691 mmHg 87%
    06:00 +5°C° 0 mm 2 mps 691 mmHg 86%
    07:00 +4°C° 0 mm 2 mps 691 mmHg 85%
    08:00 +6°C° 0 mm 2 mps 691 mmHg 75%
    09:00 +7°C° 0 mm 2 mps 692 mmHg 66%
    10:00 +9°C° 0 mm 1 mps 693 mmHg 56%
    11:00 +9°C° 0 mm 2 mps 692 mmHg 51%
    12:00 +12°C° 0 mm 2 mps 692 mmHg 46%
    13:00 +13°C° 0 mm 2 mps 692 mmHg 41%
    14:00 +13°C° 0 mm 2 mps 692 mmHg 40%
    15:00 +13°C° 0 mm 2 mps 692 mmHg 40%
    16:00 +13°C° 0 mm 2 mps 691 mmHg 40%
    17:00 +12°C° 0 mm 2 mps 691 mmHg 46%
    18:00 +10°C° 0 mm 2 mps 691 mmHg 51%
    19:00 +8°C° 0 mm 2 mps 691 mmHg 57%
    20:00 +8°C° 0 mm 2 mps 691 mmHg 60%
    21:00 +8°C° 0 mm 2 mps 691 mmHg 63%
    22:00 +7°C° 0 mm 2 mps 691 mmHg 66%
    23:00 +7°C° 0 mm 2 mps 691 mmHg 68%

    19 December, Wednesday

    Time Temperature Precipitation Wind Pressure Humidity
    00:00 +7°C° 0 mm 3 mps 690 mmHg 70%
    01:00 +5°C° 0 mm 3 mps 690 mmHg 72%
    02:00 +5°C° 0 mm 3 mps 690 mmHg 71%
    03:00 +5°C° 0 mm 3 mps 690 mmHg 71%
    04:00 +5°C° 0 mm 3 mps 689 mmHg 71%
    05:00 +5°C° 0 mm 3 mps 689 mmHg 70%
    06:00 +4°C° 0 mm 3 mps 689 mmHg 69%
    07:00 +4°C° 0 mm 3 mps 689 mmHg 69%
    08:00 +6°C° 0 mm 4 mps 690 mmHg 63%
    09:00 +7°C° 0 mm 4 mps 690 mmHg 57%
    10:00 +10°C° 0 mm 4 mps 690 mmHg 51%
    11:00 +11°C° 0 mm 4 mps 690 mmHg 46%
    12:00 +13°C° 0 mm 4 mps 690 mmHg 42%
    13:00 +15°C° 0 mm 4 mps 690 mmHg 37%
    14:00 +15°C° 0 mm 4 mps 690 mmHg 38%
    15:00 +16°C° 0 mm 3 mps 689 mmHg 38%
    16:00 +16°C° 0 mm 3 mps 689 mmHg 39%
    17:00 +13°C° 0 mm 3 mps 689 mmHg 44%
    18:00 +13°C° 0 mm 2 mps 689 mmHg 49%
    19:00 +11°C° 0 mm 1 mps 689 mmHg 55%
    20:00 +11°C° 0 mm 1 mps 689 mmHg 56%
    21:00 +11°C° 0 mm 1 mps 689 mmHg 56%
    22:00 +11°C° 0 mm 1 mps 689 mmHg 57%
    23:00 +10°C° 0 mm 1 mps 689 mmHg 58%

    20 December, Thursday

    Time Temperature Precipitation Wind Pressure Humidity
    00:00 +10°C° 0 mm 1 mps 689 mmHg 59%
    01:00 +10°C° 0 mm 1 mps 689 mmHg 59%
    02:00 +10°C° 0 mm 1 mps 688 mmHg 60%
    03:00 +10°C° 0 mm 1 mps 688 mmHg 60%
    04:00 +10°C° 0 mm 1 mps 688 mmHg 61%
    05:00 +10°C° 0 mm 1 mps 688 mmHg 62%
    06:00 +10°C° 0 mm 1 mps 689 mmHg 63%
    07:00 +9°C° 0 mm 1 mps 689 mmHg 64%
    08:00 +9°C° 0 mm 2 mps 689 mmHg 64%
    09:00 +10°C° 0 mm 2 mps 690 mmHg 63%
    10:00 +11°C° 0 mm 3 mps 690 mmHg 63%
    11:00 +11°C° 0 mm 3 mps 690 mmHg 62%
    12:00 +12°C° 0 mm 4 mps 690 mmHg 60%
    13:00 +12°C° 0 mm 4 mps 690 mmHg 59%
    14:00 +12°C° 0 mm 4 mps 690 mmHg 60%
    15:00 +12°C° 0 mm 5 mps 690 mmHg 61%
    16:00 +10°C° 0 mm 5 mps 690 mmHg 61%
    17:00 +10°C° 0 mm 4 mps 690 mmHg 64%
    18:00 +10°C° 0 mm 4 mps 690 mmHg 68%
    19:00 +8°C° 0 mm 4 mps 691 mmHg 71%
    20:00 +8°C° 0 mm 3 mps 691 mmHg 74%
    21:00 +8°C° 0 mm 3 mps 691 mmHg 78%
    22:00 +7°C° 0 mm 3 mps 691 mmHg 82%
    23:00 +5°C° 0 mm 3 mps 691 mmHg 83%
    Show more